Time,TemperatureF,DewpointF,PressureIn,WindDirection,WindDirectionDegrees,WindSpeedMPH,WindSpeedGustMPH,Humidity,HourlyPrecipIn,Conditions,Clouds,dailyrainin,SoftwareType,DateUTC
2014-08-30 00:01:00,77.3,77.0,30.14,NW,315,0.0,0.0,100,0.00,,,0.00,Rainwise IP-100,2014-08-30 04:01:00,
2014-08-30 00:02:00,77.3,77.0,30.14,NW,315,0.0,0.0,100,0.00,,,0.00,Rainwise IP-100,2014-08-30 04:02:00,
2014-08-30 00:07:00,77.2,77.0,30.13,NW,315,0.0,0.0,100,0.00,,,0.00,Rainwise IP-100,2014-08-30 04:07:00,
2014-08-30 00:12:00,77.2,77.0,30.14,NW,315,0.0,0.0,100,0.00,,,0.00,Rainwise IP-100,2014-08-30 04:12:00,
2014-08-30 00:17:00,77.1,77.0,30.14,NW,315,0.0,0.0,100,0.00,,,0.00,Rainwise IP-100,2014-08-30 04:17:00,
2014-08-30 00:22:00,77.2,77.0,30.14,North,360,0.0,2.0,100,0.00,,,0.00,Rainwise IP-100,2014-08-30 04:22:00,
2014-08-30 00:27:00,77.4,77.0,30.13,North,360,0.0,3.0,100,0.00,,,0.00,Rainwise IP-100,2014-08-30 04:27:00,
2014-08-30 00:32:00,77.7,77.0,30.13,SE,135,1.0,2.0,100,0.00,,,0.00,Rainwise IP-100,2014-08-30 04:32:00,
2014-08-30 00:37:00,77.8,77.0,30.13,NW,315,0.0,2.0,100,0.00,,,0.00,Rainwise IP-100,2014-08-30 04:37:00,
2014-08-30 00:42:00,77.9,78.0,30.13,North,360,0.0,2.0,100,0.00,,,0.00,Rainwise IP-100,2014-08-30 04:42:00,
2014-08-30 00:47:00,78.0,78.0,30.13,NW,315,0.0,2.0,100,0.00,,,0.00,Rainwise IP-100,2014-08-30 04:47:00,
2014-08-30 00:52:00,78.1,78.0,30.12,NNE,22,0.0,2.0,100,0.00,,,0.00,Rainwise IP-100,2014-08-30 04:52:00,
2014-08-30 00:57:00,78.0,78.0,30.12,NW,315,0.0,2.0,100,0.00,,,0.00,Rainwise IP-100,2014-08-30 04:57:00,
2014-08-30 01:02:00,77.9,78.0,30.12,NW,315,0.0,0.0,100,0.00,,,0.00,Rainwise IP-100,2014-08-30 05:02:00,
2014-08-30 01:07:00,77.8,77.0,30.12,NW,315,0.0,0.0,100,0.00,,,0.00,Rainwise IP-100,2014-08-30 05:07:00,
2014-08-30 01:12:00,77.6,77.0,30.12,North,360,0.0,2.0,100,0.00,,,0.00,Rainwise IP-100,2014-08-30 05:12:00,
2014-08-30 01:17:00,77.4,77.0,30.12,North,360,0.0,0.0,100,0.00,,,0.00,Rainwise IP-100,2014-08-30 05:17:00,
2014-08-30 01:22:00,77.2,77.0,30.12,North,360,0.0,0.0,100,0.00,,,0.00,Rainwise IP-100,2014-08-30 05:22:00,
2014-08-30 01:27:00,76.9,76.0,30.12,North,360,0.0,0.0,99,0.00,,,0.00,Rainwise IP-100,2014-08-30 05:27:00,
2014-08-30 01:32:00,76.8,76.0,30.11,North,360,0.0,0.0,99,0.00,,,0.00,Rainwise IP-100,2014-08-30 05:32:00,
2014-08-30 01:37:00,76.7,76.0,30.11,North,360,0.0,0.0,99,0.00,,,0.00,Rainwise IP-100,2014-08-30 05:37:00,
2014-08-30 01:42:00,76.5,76.0,30.11,North,360,0.0,0.0,99,0.00,,,0.00,Rainwise IP-100,2014-08-30 05:42:00,
2014-08-30 01:47:00,76.5,76.0,30.10,North,360,0.0,0.0,99,0.00,,,0.00,Rainwise IP-100,2014-08-30 05:47:00,
2014-08-30 01:52:00,76.3,76.0,30.10,North,360,0.0,0.0,99,0.00,,,0.00,Rainwise IP-100,2014-08-30 05:52:00,
2014-08-30 01:57:00,76.2,76.0,30.10,North,360,0.0,0.0,99,0.00,,,0.00,Rainwise IP-100,2014-08-30 05:57:00,
2014-08-30 02:02:00,76.2,76.0,30.10,North,360,0.0,0.0,99,0.00,,,0.00,Rainwise IP-100,2014-08-30 06:02:00,
2014-08-30 02:07:00,76.0,75.0,30.10,North,360,0.0,0.0,99,0.00,,,0.00,Rainwise IP-100,2014-08-30 06:07:00,
2014-08-30 02:12:00,75.9,75.0,30.10,North,360,0.0,0.0,99,0.00,,,0.00,Rainwise IP-100,2014-08-30 06:12:00,
2014-08-30 02:17:00,75.8,75.0,30.10,North,360,0.0,0.0,99,0.00,,,0.00,Rainwise IP-100,2014-08-30 06:17:00,
2014-08-30 02:22:00,75.8,75.0,30.10,North,360,0.0,0.0,99,0.00,,,0.00,Rainwise IP-100,2014-08-30 06:22:00,
2014-08-30 02:27:00,75.9,75.0,30.10,North,360,0.0,0.0,99,0.00,,,0.00,Rainwise IP-100,2014-08-30 06:27:00,
2014-08-30 02:32:00,76.4,76.0,30.10,ENE,67,1.0,2.0,99,0.00,,,0.00,Rainwise IP-100,2014-08-30 06:32:00,
2014-08-30 02:37:00,76.9,76.0,30.10,East,90,1.0,2.0,99,0.00,,,0.00,Rainwise IP-100,2014-08-30 06:37:00,
2014-08-30 02:42:00,77.3,77.0,30.10,ESE,112,1.0,4.0,100,0.00,,,0.00,Rainwise IP-100,2014-08-30 06:42:00,
2014-08-30 02:47:00,77.7,77.0,30.10,East,90,2.0,3.0,99,0.00,,,0.00,Rainwise IP-100,2014-08-30 06:47:00,
2014-08-30 02:52:00,78.0,77.0,30.10,East,90,1.0,2.0,98,0.00,,,0.00,Rainwise IP-100,2014-08-30 06:52:00,
2014-08-30 02:57:00,78.2,76.0,30.09,East,90,2.0,3.0,95,0.00,,,0.00,Rainwise IP-100,2014-08-30 06:57:00,
2014-08-30 03:02:00,78.4,76.0,30.08,East,90,2.0,3.0,93,0.00,,,0.00,Rainwise IP-100,2014-08-30 07:02:00,
2014-08-30 03:07:00,78.5,76.0,30.08,ESE,112,0.0,2.0,94,0.00,,,0.00,Rainwise IP-100,2014-08-30 07:07:00,
2014-08-30 03:12:00,78.5,77.0,30.08,East,90,0.0,3.0,95,0.00,,,0.00,Rainwise IP-100,2014-08-30 07:12:00,
2014-08-30 03:17:00,78.5,77.0,30.08,ESE,112,0.0,2.0,97,0.00,,,0.00,Rainwise IP-100,2014-08-30 07:17:00,
2014-08-30 03:22:00,78.5,77.0,30.08,East,90,2.0,2.0,97,0.00,,,0.00,Rainwise IP-100,2014-08-30 07:22:00,
2014-08-30 03:27:00,78.6,77.0,30.08,East,90,1.0,4.0,97,0.00,,,0.00,Rainwise IP-100,2014-08-30 07:27:00,
2014-08-30 03:32:00,78.7,77.0,30.07,East,90,2.0,4.0,97,0.00,,,0.00,Rainwise IP-100,2014-08-30 07:32:00,
2014-08-30 03:37:00,78.7,77.0,30.07,ENE,67,1.0,2.0,96,0.00,,,0.00,Rainwise IP-100,2014-08-30 07:37:00,
2014-08-30 03:42:00,78.7,77.0,30.07,East,90,3.0,4.0,95,0.00,,,0.00,Rainwise IP-100,2014-08-30 07:42:00,
2014-08-30 03:47:00,78.6,77.0,30.06,ESE,112,0.0,4.0,95,0.00,,,0.00,Rainwise IP-100,2014-08-30 07:47:00,
2014-08-30 03:52:00,78.4,76.0,30.06,ESE,112,1.0,1.0,95,0.00,,,0.00,Rainwise IP-100,2014-08-30 07:52:00,
2014-08-30 03:57:00,78.1,76.0,30.07,ESE,112,0.0,2.0,96,0.00,,,0.00,Rainwise IP-100,2014-08-30 07:57:00,
2014-08-30 04:02:00,77.9,76.0,30.06,SE,135,2.0,2.0,96,0.00,,,0.00,Rainwise IP-100,2014-08-30 08:02:00,
2014-08-30 04:07:00,77.8,76.0,30.06,SE,135,1.0,2.0,96,0.00,,,0.00,Rainwise IP-100,2014-08-30 08:07:00,
2014-08-30 04:12:00,77.7,76.0,30.07,SE,135,0.0,2.0,97,0.00,,,0.00,Rainwise IP-100,2014-08-30 08:12:00,
2014-08-30 04:17:00,77.5,76.0,30.07,SE,135,0.0,1.0,97,0.00,,,0.00,Rainwise IP-100,2014-08-30 08:17:00,
2014-08-30 04:22:00,77.3,76.0,30.07,SE,135,0.0,0.0,97,0.00,,,0.00,Rainwise IP-100,2014-08-30 08:22:00,
2014-08-30 04:27:00,76.9,76.0,30.07,SE,135,0.0,0.0,97,0.00,,,0.00,Rainwise IP-100,2014-08-30 08:27:00,
2014-08-30 04:32:00,76.6,75.0,30.08,SE,135,0.0,0.0,97,0.00,,,0.00,Rainwise IP-100,2014-08-30 08:32:00,
2014-08-30 04:37:00,76.2,75.0,30.08,SE,135,0.0,0.0,97,0.00,,,0.00,Rainwise IP-100,2014-08-30 08:37:00,
2014-08-30 04:42:00,75.9,75.0,30.08,SE,135,0.0,0.0,98,0.00,,,0.00,Rainwise IP-100,2014-08-30 08:42:00,
2014-08-30 04:47:00,75.9,75.0,30.08,SE,135,0.0,0.0,99,0.00,,,0.00,Rainwise IP-100,2014-08-30 08:47:00,
2014-08-30 04:52:00,75.8,75.0,30.08,SE,135,0.0,0.0,99,0.00,,,0.00,Rainwise IP-100,2014-08-30 08:52:00,
2014-08-30 04:57:00,75.7,75.0,30.08,SE,135,0.0,0.0,99,0.00,,,0.00,Rainwise IP-100,2014-08-30 08:57:00,
2014-08-30 05:02:00,75.9,75.0,30.08,SE,135,0.0,0.0,99,0.00,,,0.00,Rainwise IP-100,2014-08-30 09:02:00,
2014-08-30 05:07:00,76.2,76.0,30.08,SE,135,0.0,0.0,99,0.00,,,0.00,Rainwise IP-100,2014-08-30 09:07:00,
2014-08-30 05:12:00,76.5,76.0,30.08,ENE,67,0.0,2.0,99,0.00,,,0.00,Rainwise IP-100,2014-08-30 09:12:00,
2014-08-30 05:17:00,76.8,76.0,30.09,East,90,0.0,2.0,99,0.00,,,0.00,Rainwise IP-100,2014-08-30 09:17:00,
2014-08-30 05:22:00,77.2,77.0,30.09,East,90,0.0,3.0,100,0.00,,,0.00,Rainwise IP-100,2014-08-30 09:22:00,
2014-08-30 05:27:00,77.3,77.0,30.09,East,90,0.0,2.0,100,0.00,,,0.00,Rainwise IP-100,2014-08-30 09:27:00,
2014-08-30 05:32:00,77.2,77.0,30.09,East,90,0.0,0.0,100,0.00,,,0.00,Rainwise IP-100,2014-08-30 09:32:00,
2014-08-30 05:37:00,77.0,77.0,30.10,East,90,0.0,0.0,100,0.00,,,0.00,Rainwise IP-100,2014-08-30 09:37:00,
2014-08-30 05:42:00,76.8,76.0,30.10,East,90,0.0,0.0,99,0.00,,,0.00,Rainwise IP-100,2014-08-30 09:42:00,
2014-08-30 05:47:00,76.7,76.0,30.10,East,90,0.0,0.0,99,0.00,,,0.00,Rainwise IP-100,2014-08-30 09:47:00,
2014-08-30 05:52:00,76.5,76.0,30.10,East,90,0.0,0.0,99,0.00,,,0.00,Rainwise IP-100,2014-08-30 09:52:00,
2014-08-30 05:57:00,76.5,76.0,30.10,East,90,0.0,0.0,99,0.00,,,0.00,Rainwise IP-100,2014-08-30 09:57:00,
2014-08-30 06:02:00,76.4,76.0,30.10,East,90,0.0,0.0,99,0.00,,,0.00,Rainwise IP-100,2014-08-30 10:02:00,
2014-08-30 06:07:00,76.3,76.0,30.10,East,90,0.0,0.0,99,0.00,,,0.00,Rainwise IP-100,2014-08-30 10:07:00,
2014-08-30 06:12:00,76.4,76.0,30.10,East,90,0.0,0.0,99,0.00,,,0.00,Rainwise IP-100,2014-08-30 10:12:00,
2014-08-30 06:17:00,76.5,76.0,30.10,East,90,0.0,0.0,99,0.00,,,0.00,Rainwise IP-100,2014-08-30 10:17:00,
2014-08-30 06:22:00,76.6,76.0,30.10,East,90,0.0,0.0,99,0.00,,,0.00,Rainwise IP-100,2014-08-30 10:22:00,
2014-08-30 06:27:00,76.8,76.0,30.11,NNE,22,0.0,1.0,99,0.00,,,0.00,Rainwise IP-100,2014-08-30 10:27:00,
2014-08-30 06:32:00,77.6,77.0,30.11,SE,135,0.0,2.0,100,0.00,,,0.00,Rainwise IP-100,2014-08-30 10:32:00,
2014-08-30 06:37:00,78.2,78.0,30.11,SE,135,0.0,1.0,100,0.00,,,0.00,Rainwise IP-100,2014-08-30 10:37:00,
2014-08-30 06:42:00,78.3,78.0,30.11,SE,135,0.0,1.0,100,0.00,,,0.00,Rainwise IP-100,2014-08-30 10:42:00,
2014-08-30 06:47:00,78.3,78.0,30.11,East,90,1.0,2.0,100,0.00,,,0.00,Rainwise IP-100,2014-08-30 10:47:00,
2014-08-30 06:52:00,78.5,78.0,30.11,East,90,0.0,2.0,100,0.00,,,0.00,Rainwise IP-100,2014-08-30 10:52:00,
2014-08-30 06:57:00,78.5,78.0,30.11,East,90,0.0,2.0,100,0.00,,,0.00,Rainwise IP-100,2014-08-30 10:57:00,
2014-08-30 07:02:00,78.4,78.0,30.11,East,90,1.0,2.0,100,0.00,,,0.00,Rainwise IP-100,2014-08-30 11:02:00,
2014-08-30 07:07:00,78.4,78.0,30.11,East,90,0.0,2.0,100,0.00,,,0.00,Rainwise IP-100,2014-08-30 11:07:00,
2014-08-30 07:12:00,78.3,78.0,30.12,East,90,0.0,1.0,100,0.00,,,0.00,Rainwise IP-100,2014-08-30 11:12:00,
2014-08-30 07:17:00,78.2,78.0,30.12,East,90,0.0,0.0,100,0.00,,,0.00,Rainwise IP-100,2014-08-30 11:17:00,
2014-08-30 07:22:00,78.3,78.0,30.11,East,90,0.0,1.0,100,0.00,,,0.00,Rainwise IP-100,2014-08-30 11:22:00,
2014-08-30 07:27:00,78.4,78.0,30.12,East,90,0.0,1.0,100,0.00,,,0.00,Rainwise IP-100,2014-08-30 11:27:00,
2014-08-30 07:32:00,78.6,78.0,30.12,East,90,0.0,1.0,100,0.00,,,0.00,Rainwise IP-100,2014-08-30 11:32:00,
2014-08-30 07:37:00,78.8,78.0,30.12,East,90,1.0,2.0,100,0.00,,,0.00,Rainwise IP-100,2014-08-30 11:37:00,
2014-08-30 07:42:00,79.1,79.0,30.12,East,90,0.0,2.0,100,0.00,,,0.00,Rainwise IP-100,2014-08-30 11:42:00,
2014-08-30 07:47:00,79.3,79.0,30.13,East,90,0.0,0.0,99,0.00,,,0.00,Rainwise IP-100,2014-08-30 11:47:00,
2014-08-30 07:52:00,79.4,79.0,30.13,East,90,0.0,1.0,99,0.00,,,0.00,Rainwise IP-100,2014-08-30 11:52:00,
2014-08-30 07:57:00,79.4,79.0,30.13,East,90,0.0,1.0,99,0.00,,,0.00,Rainwise IP-100,2014-08-30 11:57:00,
2014-08-30 08:02:00,79.6,79.0,30.14,East,90,0.0,1.0,99,0.00,,,0.00,Rainwise IP-100,2014-08-30 12:02:00,
2014-08-30 08:07:00,79.9,79.0,30.14,East,90,0.0,1.0,99,0.00,,,0.00,Rainwise IP-100,2014-08-30 12:07:00,
2014-08-30 08:12:00,80.3,79.0,30.14,East,90,0.0,2.0,98,0.00,,,0.00,Rainwise IP-100,2014-08-30 12:12:00,
2014-08-30 08:17:00,80.6,80.0,30.14,East,90,0.0,1.0,98,0.00,,,0.00,Rainwise IP-100,2014-08-30 12:17:00,
2014-08-30 08:22:00,80.9,80.0,30.14,East,90,1.0,2.0,96,0.00,,,0.00,Rainwise IP-100,2014-08-30 12:22:00,
2014-08-30 08:27:00,81.2,80.0,30.14,East,90,0.0,2.0,95,0.00,,,0.00,Rainwise IP-100,2014-08-30 12:27:00,
2014-08-30 08:32:00,81.3,80.0,30.14,East,90,0.0,1.0,95,0.00,,,0.00,Rainwise IP-100,2014-08-30 12:32:00,
2014-08-30 08:37:00,81.4,80.0,30.14,East,90,0.0,0.0,95,0.00,,,0.00,Rainwise IP-100,2014-08-30 12:37:00,
2014-08-30 08:42:00,81.5,80.0,30.14,East,90,0.0,2.0,95,0.00,,,0.00,Rainwise IP-100,2014-08-30 12:42:00,
2014-08-30 08:47:00,81.7,80.0,30.14,East,90,0.0,1.0,95,0.00,,,0.00,Rainwise IP-100,2014-08-30 12:47:00,
2014-08-30 08:52:00,81.9,80.0,30.14,East,90,2.0,2.0,94,0.00,,,0.00,Rainwise IP-100,2014-08-30 12:52:00,
2014-08-30 08:57:00,82.5,79.0,30.15,ENE,67,1.0,2.0,91,0.00,,,0.00,Rainwise IP-100,2014-08-30 12:57:00,
2014-08-30 09:02:00,82.9,80.0,30.14,East,90,2.0,4.0,91,0.00,,,0.00,Rainwise IP-100,2014-08-30 13:02:00,
2014-08-30 09:07:00,83.4,80.0,30.14,ESE,112,0.0,3.0,90,0.00,,,0.00,Rainwise IP-100,2014-08-30 13:07:00,
2014-08-30 09:12:00,83.8,80.0,30.15,East,90,0.0,2.0,88,0.00,,,0.00,Rainwise IP-100,2014-08-30 13:12:00,
2014-08-30 09:17:00,84.3,80.0,30.15,East,90,3.0,3.0,88,0.00,,,0.00,Rainwise IP-100,2014-08-30 13:17:00,
2014-08-30 09:22:00,84.5,79.0,30.15,ESE,112,1.0,4.0,84,0.00,,,0.00,Rainwise IP-100,2014-08-30 13:22:00,
2014-08-30 09:27:00,84.7,79.0,30.15,ESE,112,2.0,4.0,84,0.00,,,0.00,Rainwise IP-100,2014-08-30 13:27:00,
2014-08-30 09:32:00,84.9,79.0,30.15,SSE,157,1.0,6.0,84,0.00,,,0.00,Rainwise IP-100,2014-08-30 13:32:00,
2014-08-30 09:37:00,85.5,79.0,30.15,SE,135,2.0,6.0,82,0.00,,,0.00,Rainwise IP-100,2014-08-30 13:37:00,
2014-08-30 09:42:00,85.7,79.0,30.15,East,90,2.0,3.0,81,0.00,,,0.00,Rainwise IP-100,2014-08-30 13:42:00,
2014-08-30 09:47:00,85.4,78.0,30.16,ESE,112,4.0,6.0,80,0.00,,,0.00,Rainwise IP-100,2014-08-30 13:47:00,
2014-08-30 09:52:00,85.2,78.0,30.16,East,90,4.0,6.0,81,0.00,,,0.00,Rainwise IP-100,2014-08-30 13:52:00,
2014-08-30 09:57:00,85.1,78.0,30.16,East,90,3.0,6.0,81,0.00,,,0.00,Rainwise IP-100,2014-08-30 13:57:00,
2014-08-30 10:02:00,85.2,79.0,30.16,East,90,0.0,5.0,82,0.00,,,0.00,Rainwise IP-100,2014-08-30 14:02:00,
2014-08-30 10:07:00,85.5,79.0,30.16,East,90,1.0,6.0,81,0.00,,,0.00,Rainwise IP-100,2014-08-30 14:07:00,
2014-08-30 10:12:00,85.6,78.0,30.16,East,90,2.0,6.0,80,0.00,,,0.00,Rainwise IP-100,2014-08-30 14:12:00,
2014-08-30 10:17:00,85.7,78.0,30.16,ESE,112,0.0,6.0,79,0.00,,,0.00,Rainwise IP-100,2014-08-30 14:17:00,
2014-08-30 10:22:00,85.8,78.0,30.16,East,90,1.0,6.0,79,0.00,,,0.00,Rainwise IP-100,2014-08-30 14:22:00,
2014-08-30 10:27:00,86.1,78.0,30.16,SE,135,0.0,4.0,79,0.00,,,0.00,Rainwise IP-100,2014-08-30 14:27:00,
2014-08-30 10:32:00,86.4,79.0,30.16,East,90,0.0,2.0,79,0.00,,,0.00,Rainwise IP-100,2014-08-30 14:32:00,
2014-08-30 10:37:00,86.6,78.0,30.16,ESE,112,1.0,4.0,78,0.00,,,0.00,Rainwise IP-100,2014-08-30 14:37:00,
2014-08-30 10:42:00,86.7,79.0,30.17,East,90,2.0,4.0,78,0.00,,,0.00,Rainwise IP-100,2014-08-30 14:42:00,
2014-08-30 10:47:00,86.9,79.0,30.17,ESE,112,2.0,4.0,78,0.00,,,0.00,Rainwise IP-100,2014-08-30 14:47:00,
2014-08-30 10:52:00,87.1,78.0,30.17,ENE,67,2.0,2.0,77,0.00,,,0.00,Rainwise IP-100,2014-08-30 14:52:00,
2014-08-30 10:57:00,87.7,79.0,30.17,East,90,2.0,4.0,77,0.00,,,0.00,Rainwise IP-100,2014-08-30 14:57:00,
2014-08-30 11:02:00,87.9,78.0,30.17,NE,45,2.0,7.0,74,0.00,,,0.00,Rainwise IP-100,2014-08-30 15:02:00,
2014-08-30 11:07:00,88.3,78.0,30.17,ESE,112,1.0,3.0,73,0.00,,,0.00,Rainwise IP-100,2014-08-30 15:07:00,
2014-08-30 11:12:00,88.9,78.0,30.18,East,90,1.0,4.0,70,0.00,,,0.00,Rainwise IP-100,2014-08-30 15:12:00,
2014-08-30 11:18:00,89.7,76.0,30.18,SE,135,2.0,7.0,65,0.00,,,0.00,Rainwise IP-100,2014-08-30 15:18:00,
2014-08-30 11:23:00,89.6,77.0,30.18,ENE,67,1.0,6.0,68,0.00,,,0.00,Rainwise IP-100,2014-08-30 15:23:00,
2014-08-30 11:28:00,88.9,76.0,30.18,ESE,112,2.0,9.0,67,0.00,,,0.00,Rainwise IP-100,2014-08-30 15:28:00,
2014-08-30 11:33:00,89.1,78.0,30.18,ESE,112,2.0,7.0,70,0.00,,,0.00,Rainwise IP-100,2014-08-30 15:33:00,
2014-08-30 11:38:00,89.2,78.0,30.18,NE,45,3.0,6.0,71,0.00,,,0.00,Rainwise IP-100,2014-08-30 15:38:00,
2014-08-30 11:43:00,89.3,78.0,30.18,SE,135,1.0,4.0,70,0.00,,,0.00,Rainwise IP-100,2014-08-30 15:43:00,
2014-08-30 11:48:00,88.9,78.0,30.18,East,90,1.0,4.0,71,0.00,,,0.00,Rainwise IP-100,2014-08-30 15:48:00,
2014-08-30 11:53:00,88.8,78.0,30.19,SE,135,1.0,6.0,72,0.00,,,0.00,Rainwise IP-100,2014-08-30 15:53:00,
2014-08-30 11:58:00,88.9,78.0,30.19,ENE,67,1.0,8.0,70,0.00,,,0.00,Rainwise IP-100,2014-08-30 15:58:00,
2014-08-30 12:03:00,88.5,77.0,30.19,East,90,0.0,6.0,70,0.00,,,0.00,Rainwise IP-100,2014-08-30 16:03:00,
2014-08-30 12:08:00,88.2,77.0,30.19,North,360,0.0,5.0,70,0.00,,,0.00,Rainwise IP-100,2014-08-30 16:08:00,
2014-08-30 12:13:00,88.4,77.0,30.18,East,90,1.0,4.0,69,0.00,,,0.00,Rainwise IP-100,2014-08-30 16:13:00,
2014-08-30 12:18:00,88.9,77.0,30.18,NE,45,2.0,5.0,69,0.00,,,0.00,Rainwise IP-100,2014-08-30 16:18:00,
2014-08-30 12:23:00,89.3,76.0,30.18,NE,45,2.0,6.0,66,0.00,,,0.00,Rainwise IP-100,2014-08-30 16:23:00,
2014-08-30 12:28:00,89.9,75.0,30.18,East,90,2.0,4.0,62,0.00,,,0.00,Rainwise IP-100,2014-08-30 16:28:00,
2014-08-30 12:33:00,90.2,74.0,30.18,East,90,2.0,6.0,60,0.00,,,0.00,Rainwise IP-100,2014-08-30 16:33:00,
2014-08-30 12:38:00,90.0,73.0,30.18,NE,45,2.0,6.0,59,0.00,,,0.00,Rainwise IP-100,2014-08-30 16:38:00,
2014-08-30 12:43:00,89.9,72.0,30.18,East,90,3.0,5.0,57,0.00,,,0.00,Rainwise IP-100,2014-08-30 16:43:00,
2014-08-30 12:48:00,89.8,69.0,30.18,East,90,2.0,7.0,50,0.00,,,0.00,Rainwise IP-100,2014-08-30 16:48:00,
2014-08-30 12:53:00,90.1,68.0,30.18,East,90,1.0,7.0,49,0.00,,,0.00,Rainwise IP-100,2014-08-30 16:53:00,
2014-08-30 12:58:00,90.4,72.0,30.18,SE,135,2.0,6.0,56,0.00,,,0.00,Rainwise IP-100,2014-08-30 16:58:00,
2014-08-30 13:03:00,90.3,73.0,30.18,SE,135,5.0,7.0,57,0.00,,,0.00,Rainwise IP-100,2014-08-30 17:03:00,
2014-08-30 13:08:00,90.5,71.0,30.18,East,90,2.0,7.0,53,0.00,,,0.00,Rainwise IP-100,2014-08-30 17:08:00,
2014-08-30 13:13:00,90.4,69.0,30.18,ENE,67,1.0,7.0,49,0.00,,,0.00,Rainwise IP-100,2014-08-30 17:13:00,
2014-08-30 13:18:00,90.2,69.0,30.18,ESE,112,2.0,8.0,51,0.00,,,0.00,Rainwise IP-100,2014-08-30 17:18:00,
2014-08-30 13:23:00,90.4,69.0,30.18,ESE,112,2.0,7.0,50,0.00,,,0.00,Rainwise IP-100,2014-08-30 17:23:00,
2014-08-30 13:28:00,90.3,71.0,30.18,NE,45,2.0,10.0,54,0.00,,,0.00,Rainwise IP-100,2014-08-30 17:28:00,
2014-08-30 13:33:00,90.4,71.0,30.18,East,90,1.0,9.0,54,0.00,,,0.00,Rainwise IP-100,2014-08-30 17:33:00,
2014-08-30 13:38:00,90.9,70.0,30.17,East,90,2.0,3.0,50,0.00,,,0.00,Rainwise IP-100,2014-08-30 17:38:00,
2014-08-30 13:43:00,90.9,71.0,30.17,SE,135,6.0,7.0,53,0.00,,,0.00,Rainwise IP-100,2014-08-30 17:43:00,
2014-08-30 13:48:00,90.7,72.0,30.17,ESE,112,2.0,9.0,55,0.00,,,0.00,Rainwise IP-100,2014-08-30 17:48:00,
2014-08-30 13:53:00,91.5,72.0,30.17,SE,135,2.0,3.0,53,0.00,,,0.00,Rainwise IP-100,2014-08-30 17:53:00,
2014-08-30 13:58:00,91.9,71.0,30.17,East,90,1.0,6.0,50,0.00,,,0.00,Rainwise IP-100,2014-08-30 17:58:00,
2014-08-30 14:03:00,91.7,71.0,30.17,East,90,0.0,6.0,51,0.00,,,0.00,Rainwise IP-100,2014-08-30 18:03:00,
2014-08-30 14:08:00,91.8,71.0,30.16,East,90,1.0,6.0,51,0.00,,,0.00,Rainwise IP-100,2014-08-30 18:08:00,
2014-08-30 14:13:00,91.5,72.0,30.16,East,90,2.0,8.0,54,0.00,,,0.00,Rainwise IP-100,2014-08-30 18:13:00,
2014-08-30 14:18:00,91.4,73.0,30.16,East,90,2.0,9.0,55,0.00,,,0.00,Rainwise IP-100,2014-08-30 18:18:00,
2014-08-30 14:23:00,91.0,74.0,30.16,NE,45,2.0,9.0,58,0.00,,,0.00,Rainwise IP-100,2014-08-30 18:23:00,
2014-08-30 14:28:00,91.0,76.0,30.15,East,90,3.0,6.0,61,0.00,,,0.00,Rainwise IP-100,2014-08-30 18:28:00,
2014-08-30 14:33:00,91.3,75.0,30.16,ENE,67,1.0,7.0,60,0.00,,,0.00,Rainwise IP-100,2014-08-30 18:33:00,
2014-08-30 14:38:00,90.8,76.0,30.15,East,90,1.0,6.0,62,0.00,,,0.00,Rainwise IP-100,2014-08-30 18:38:00,
2014-08-30 14:43:00,91.2,75.0,30.16,SE,135,5.0,8.0,60,0.00,,,0.00,Rainwise IP-100,2014-08-30 18:43:00,
2014-08-30 14:48:00,89.9,77.0,30.15,East,90,2.0,9.0,66,0.00,,,0.00,Rainwise IP-100,2014-08-30 18:48:00,
2014-08-30 14:53:00,90.2,76.0,30.15,East,90,1.0,9.0,63,0.00,,,0.00,Rainwise IP-100,2014-08-30 18:53:00,
2014-08-30 14:58:00,90.6,74.0,30.14,East,90,2.0,6.0,60,0.00,,,0.00,Rainwise IP-100,2014-08-30 18:58:00,
2014-08-30 15:03:00,90.4,74.0,30.14,East,90,2.0,9.0,60,0.00,,,0.00,Rainwise IP-100,2014-08-30 19:03:00,
2014-08-30 15:08:00,90.7,74.0,30.14,ESE,112,2.0,8.0,59,0.00,,,0.00,Rainwise IP-100,2014-08-30 19:08:00,
2014-08-30 15:13:00,90.7,72.0,30.15,SE,135,1.0,10.0,54,0.00,,,0.00,Rainwise IP-100,2014-08-30 19:13:00,
2014-08-30 15:18:00,90.9,71.0,30.15,NE,45,2.0,6.0,53,0.00,,,0.00,Rainwise IP-100,2014-08-30 19:18:00,
2014-08-30 15:23:00,91.0,70.0,30.15,ENE,67,2.0,8.0,51,0.00,,,0.00,Rainwise IP-100,2014-08-30 19:23:00,
2014-08-30 15:28:00,91.1,71.0,30.15,East,90,2.0,8.0,53,0.00,,,0.00,Rainwise IP-100,2014-08-30 19:28:00,
2014-08-30 15:33:00,91.6,70.0,30.15,East,90,5.0,6.0,50,0.00,,,0.00,Rainwise IP-100,2014-08-30 19:33:00,
2014-08-30 15:38:00,91.1,71.0,30.15,East,90,4.0,9.0,53,0.00,,,0.00,Rainwise IP-100,2014-08-30 19:38:00,
2014-08-30 15:43:00,90.9,71.0,30.15,SE,135,2.0,8.0,53,0.00,,,0.00,Rainwise IP-100,2014-08-30 19:43:00,
2014-08-30 15:48:00,91.2,70.0,30.15,East,90,3.0,8.0,51,0.00,,,0.00,Rainwise IP-100,2014-08-30 19:48:00,
2014-08-30 15:53:00,91.0,70.0,30.14,East,90,2.0,10.0,51,0.00,,,0.00,Rainwise IP-100,2014-08-30 19:53:00,
2014-08-30 15:58:00,90.9,72.0,30.14,ESE,112,1.0,11.0,54,0.00,,,0.00,Rainwise IP-100,2014-08-30 19:58:00,
2014-08-30 16:03:00,91.1,70.0,30.14,NE,45,2.0,9.0,51,0.00,,,0.00,Rainwise IP-100,2014-08-30 20:03:00,
2014-08-30 16:08:00,90.9,71.0,30.14,East,90,2.0,12.0,53,0.00,,,0.00,Rainwise IP-100,2014-08-30 20:08:00,
2014-08-30 16:13:00,90.7,72.0,30.13,East,90,1.0,10.0,55,0.00,,,0.00,Rainwise IP-100,2014-08-30 20:13:00,
2014-08-30 16:18:00,90.9,73.0,30.13,NE,45,2.0,11.0,57,0.00,,,0.00,Rainwise IP-100,2014-08-30 20:18:00,
2014-08-30 16:23:00,90.9,73.0,30.13,East,90,1.0,10.0,57,0.00,,,0.00,Rainwise IP-100,2014-08-30 20:23:00,
2014-08-30 16:28:00,90.7,73.0,30.13,East,90,2.0,10.0,57,0.00,,,0.00,Rainwise IP-100,2014-08-30 20:28:00,
2014-08-30 16:33:00,90.7,74.0,30.13,NE,45,1.0,5.0,59,0.00,,,0.00,Rainwise IP-100,2014-08-30 20:33:00,
2014-08-30 16:38:00,90.7,74.0,30.14,East,90,2.0,8.0,59,0.00,,,0.00,Rainwise IP-100,2014-08-30 20:38:00,
2014-08-30 16:43:00,90.4,75.0,30.13,East,90,2.0,9.0,61,0.00,,,0.00,Rainwise IP-100,2014-08-30 20:43:00,
2014-08-30 16:48:00,90.4,74.0,30.13,SE,135,3.0,7.0,60,0.00,,,0.00,Rainwise IP-100,2014-08-30 20:48:00,
2014-08-30 16:53:00,90.5,76.0,30.13,East,90,6.0,6.0,62,0.00,,,0.00,Rainwise IP-100,2014-08-30 20:53:00,
2014-08-30 16:58:00,90.6,75.0,30.13,ENE,67,2.0,8.0,61,0.00,,,0.00,Rainwise IP-100,2014-08-30 20:58:00,
2014-08-30 17:03:00,90.1,75.0,30.13,ENE,67,1.0,6.0,62,0.00,,,0.00,Rainwise IP-100,2014-08-30 21:03:00,
2014-08-30 17:08:00,90.3,75.0,30.13,NE,45,2.0,5.0,62,0.00,,,0.00,Rainwise IP-100,2014-08-30 21:08:00,
2014-08-30 17:13:00,89.9,75.0,30.13,East,90,1.0,9.0,62,0.00,,,0.00,Rainwise IP-100,2014-08-30 21:13:00,
2014-08-30 17:18:00,89.5,76.0,30.12,East,90,2.0,7.0,64,0.00,,,0.00,Rainwise IP-100,2014-08-30 21:18:00,
2014-08-30 17:23:00,89.1,76.0,30.12,ESE,112,1.0,9.0,65,0.00,,,0.00,Rainwise IP-100,2014-08-30 21:23:00,
2014-08-30 17:28:00,89.2,75.0,30.12,SE,135,1.0,3.0,64,0.00,,,0.00,Rainwise IP-100,2014-08-30 21:28:00,
2014-08-30 17:33:00,89.1,74.0,30.12,ENE,67,1.0,4.0,63,0.00,,,0.00,Rainwise IP-100,2014-08-30 21:33:00,
2014-08-30 17:38:00,88.6,76.0,30.12,ESE,112,0.0,6.0,66,0.00,,,0.00,Rainwise IP-100,2014-08-30 21:38:00,
2014-08-30 17:43:00,88.3,76.0,30.12,ESE,112,1.0,6.0,67,0.00,,,0.00,Rainwise IP-100,2014-08-30 21:43:00,
2014-08-30 17:48:00,87.8,76.0,30.12,East,90,5.0,6.0,68,0.00,,,0.00,Rainwise IP-100,2014-08-30 21:48:00,
2014-08-30 17:53:00,87.2,76.0,30.12,East,90,0.0,7.0,69,0.00,,,0.00,Rainwise IP-100,2014-08-30 21:53:00,
2014-08-30 17:58:00,86.7,76.0,30.12,East,90,1.0,10.0,70,0.00,,,0.00,Rainwise IP-100,2014-08-30 21:58:00,
2014-08-30 18:03:00,86.3,75.0,30.12,East,90,3.0,7.0,71,0.00,,,0.00,Rainwise IP-100,2014-08-30 22:03:00,
2014-08-30 18:08:00,86.2,75.0,30.12,NE,45,2.0,6.0,71,0.00,,,0.00,Rainwise IP-100,2014-08-30 22:08:00,
2014-08-30 18:13:00,86.5,76.0,30.11,East,90,4.0,5.0,71,0.00,,,0.00,Rainwise IP-100,2014-08-30 22:13:00,
2014-08-30 18:18:00,86.6,76.0,30.11,East,90,4.0,6.0,71,0.00,,,0.00,Rainwise IP-100,2014-08-30 22:18:00,
2014-08-30 18:23:00,86.4,76.0,30.11,NE,45,2.0,4.0,71,0.00,,,0.00,Rainwise IP-100,2014-08-30 22:23:00,
2014-08-30 18:28:00,85.9,75.0,30.11,East,90,1.0,4.0,71,0.00,,,0.00,Rainwise IP-100,2014-08-30 22:28:00,
2014-08-30 18:33:00,85.4,76.0,30.11,East,90,2.0,6.0,73,0.00,,,0.00,Rainwise IP-100,2014-08-30 22:33:00,
2014-08-30 18:38:00,84.9,76.0,30.11,East,90,0.0,6.0,74,0.00,,,0.00,Rainwise IP-100,2014-08-30 22:38:00,
2014-08-30 18:43:00,84.5,76.0,30.11,SE,135,0.0,6.0,75,0.00,,,0.00,Rainwise IP-100,2014-08-30 22:43:00,
2014-08-30 18:48:00,84.1,76.0,30.11,East,90,2.0,3.0,76,0.00,,,0.00,Rainwise IP-100,2014-08-30 22:48:00,
2014-08-30 18:53:00,83.8,75.0,30.10,East,90,0.0,4.0,76,0.00,,,0.00,Rainwise IP-100,2014-08-30 22:53:00,
2014-08-30 18:58:00,83.7,75.0,30.10,SE,135,2.0,5.0,76,0.00,,,0.00,Rainwise IP-100,2014-08-30 22:58:00,
2014-08-30 19:03:00,83.6,75.0,30.10,East,90,1.0,6.0,77,0.00,,,0.00,Rainwise IP-100,2014-08-30 23:03:00,
2014-08-30 19:08:00,83.4,76.0,30.10,East,90,2.0,7.0,78,0.00,,,0.00,Rainwise IP-100,2014-08-30 23:08:00,
2014-08-30 19:13:00,83.2,76.0,30.10,East,90,1.0,4.0,79,0.00,,,0.00,Rainwise IP-100,2014-08-30 23:13:00,
2014-08-30 19:18:00,83.1,76.0,30.10,East,90,1.0,5.0,80,0.00,,,0.00,Rainwise IP-100,2014-08-30 23:18:00,
2014-08-30 19:23:00,82.9,76.0,30.10,SE,135,2.0,4.0,80,0.00,,,0.00,Rainwise IP-100,2014-08-30 23:23:00,
2014-08-30 19:28:00,82.8,76.0,30.10,ESE,112,0.0,4.0,80,0.00,,,0.00,Rainwise IP-100,2014-08-30 23:28:00,
2014-08-30 19:33:00,82.7,76.0,30.10,East,90,2.0,2.0,80,0.00,,,0.00,Rainwise IP-100,2014-08-30 23:33:00,
2014-08-30 19:38:00,82.5,76.0,30.10,East,90,0.0,2.0,81,0.00,,,0.00,Rainwise IP-100,2014-08-30 23:38:00,
2014-08-30 19:43:00,82.3,76.0,30.10,East,90,2.0,2.0,82,0.00,,,0.00,Rainwise IP-100,2014-08-30 23:43:00,
2014-08-30 19:48:00,82.1,76.0,30.10,ESE,112,1.0,2.0,82,0.00,,,0.00,Rainwise IP-100,2014-08-30 23:48:00,
2014-08-30 19:53:00,82.1,76.0,30.10,ESE,112,1.0,4.0,82,0.00,,,0.00,Rainwise IP-100,2014-08-30 23:53:00,
2014-08-30 19:58:00,82.2,76.0,30.10,East,90,2.0,4.0,83,0.00,,,0.00,Rainwise IP-100,2014-08-30 23:58:00,
2014-08-30 20:03:00,82.2,76.0,30.10,SE,135,1.0,4.0,83,0.00,,,0.00,Rainwise IP-100,2014-08-31 00:03:00,
2014-08-30 20:08:00,82.2,76.0,30.10,East,90,2.0,6.0,83,0.00,,,0.00,Rainwise IP-100,2014-08-31 00:08:00,
2014-08-30 20:13:00,82.2,76.0,30.10,ESE,112,1.0,3.0,83,0.00,,,0.00,Rainwise IP-100,2014-08-31 00:13:00,
2014-08-30 20:18:00,82.1,76.0,30.10,East,90,2.0,2.0,84,0.00,,,0.00,Rainwise IP-100,2014-08-31 00:18:00,
2014-08-30 20:23:00,82.1,76.0,30.10,East,90,1.0,6.0,84,0.00,,,0.00,Rainwise IP-100,2014-08-31 00:23:00,
2014-08-30 20:28:00,82.3,76.0,30.11,SE,135,1.0,7.0,84,0.00,,,0.00,Rainwise IP-100,2014-08-31 00:28:00,
2014-08-30 20:33:00,82.3,77.0,30.11,SE,135,2.0,4.0,85,0.00,,,0.00,Rainwise IP-100,2014-08-31 00:33:00,
2014-08-30 20:38:00,82.2,77.0,30.11,SE,135,1.0,5.0,85,0.00,,,0.00,Rainwise IP-100,2014-08-31 00:38:00,
2014-08-30 20:43:00,82.0,77.0,30.11,East,90,3.0,4.0,85,0.00,,,0.00,Rainwise IP-100,2014-08-31 00:43:00,
2014-08-30 20:48:00,81.9,77.0,30.11,SE,135,1.0,5.0,86,0.00,,,0.00,Rainwise IP-100,2014-08-31 00:48:00,
2014-08-30 20:53:00,81.8,77.0,30.11,East,90,0.0,4.0,86,0.00,,,0.00,Rainwise IP-100,2014-08-31 00:53:00,
2014-08-30 20:58:00,81.6,77.0,30.11,ESE,112,0.0,3.0,86,0.00,,,0.00,Rainwise IP-100,2014-08-31 00:58:00,
2014-08-30 21:03:00,81.6,77.0,30.12,East,90,3.0,4.0,86,0.00,,,0.00,Rainwise IP-100,2014-08-31 01:03:00,
2014-08-30 21:08:00,81.5,77.0,30.12,ESE,112,2.0,3.0,87,0.00,,,0.00,Rainwise IP-100,2014-08-31 01:08:00,
2014-08-30 21:13:00,81.5,77.0,30.12,East,90,2.0,4.0,87,0.00,,,0.00,Rainwise IP-100,2014-08-31 01:13:00,
2014-08-30 21:18:00,81.5,77.0,30.12,East,90,1.0,4.0,87,0.00,,,0.00,Rainwise IP-100,2014-08-31 01:18:00,
2014-08-30 21:23:00,81.5,77.0,30.12,East,90,3.0,3.0,87,0.00,,,0.00,Rainwise IP-100,2014-08-31 01:23:00,
2014-08-30 21:28:00,81.6,77.0,30.12,East,90,2.0,4.0,87,0.00,,,0.00,Rainwise IP-100,2014-08-31 01:28:00,
2014-08-30 21:33:00,81.7,77.0,30.12,East,90,2.0,3.0,87,0.00,,,0.00,Rainwise IP-100,2014-08-31 01:33:00,
2014-08-30 21:38:00,81.7,77.0,30.12,East,90,0.0,5.0,87,0.00,,,0.00,Rainwise IP-100,2014-08-31 01:38:00,
2014-08-30 21:43:00,81.8,77.0,30.12,East,90,2.0,6.0,86,0.00,,,0.00,Rainwise IP-100,2014-08-31 01:43:00,
2014-08-30 21:48:00,81.8,77.0,30.12,ESE,112,1.0,5.0,86,0.00,,,0.00,Rainwise IP-100,2014-08-31 01:48:00,
2014-08-30 21:53:00,81.6,77.0,30.12,ENE,67,1.0,4.0,87,0.00,,,0.00,Rainwise IP-100,2014-08-31 01:53:00,
2014-08-30 21:58:00,81.6,77.0,30.12,East,90,2.0,6.0,87,0.00,,,0.00,Rainwise IP-100,2014-08-31 01:58:00,
2014-08-30 22:03:00,81.5,77.0,30.12,East,90,2.0,3.0,87,0.00,,,0.00,Rainwise IP-100,2014-08-31 02:03:00,
2014-08-30 22:08:00,81.3,77.0,30.12,East,90,1.0,2.0,88,0.00,,,0.00,Rainwise IP-100,2014-08-31 02:08:00,
2014-08-30 22:13:00,81.3,77.0,30.13,East,90,2.0,2.0,88,0.00,,,0.00,Rainwise IP-100,2014-08-31 02:13:00,
2014-08-30 22:18:00,81.1,77.0,30.13,East,90,0.0,2.0,88,0.00,,,0.00,Rainwise IP-100,2014-08-31 02:18:00,
2014-08-30 22:23:00,81.1,77.0,30.13,East,90,2.0,2.0,88,0.00,,,0.00,Rainwise IP-100,2014-08-31 02:23:00,